SCP
2 2 2 2 1 1 0 0 1 1 1 0 0 0 0 1 1 1 1 0 1 1 1 2 4 4 3 2 2 2 2 2 2 2 2 2 2 3 3 3 3 2 1 1 2 2 2 2 2
2 2 2 2 1 1 0 0 1 1 1 0 0 1 1 1 1 1 0 0 1 1 1 2 3 3 3 2 2 2 2 2 2 2 2 3 3 3 3 3 2 2 1 1 2 2 2 2 2
2 2 2 2 1 0 0 0 0 1 1 1 1 1 2 2 1 1 0 0 1 1 1 1 2 2 2 2 2 2 2 2 2 2 3 3 3 3 2 2 2 2 1 1 2 2 2 1 1
2 2 2 1 1 0 0 0 1 1 1 1 1 2 2 2 1 1 0 0 1 1 1 1 2 2 2 2 2 2 2 2 2 2 2 2 2 2 1 1 1 1 1 1 1 2 1 1 1
2 2 1 1 0 0 0 0 1 1 1 1 1 2 2 2 1 1 1 1 1 1 1 1 1 1 1 2 2 2 2 2 2 2 2 2 1 1 1 1 1 1 1 1 1 2 1 1 1
2 1 1 0 0 0 0 1 1 1 1 1 1 2 2 2 1 1 1 1 1 1 1 1 1 1 1 1 1 2 2 2 2 2 2 2 2 1 1 1 1 1 1 1 1 2 2 1 1
1 1 0 0 0 0 0 1 1 1 1 1 2 2 2 2 1 1 1 1 1 1 1 1 1 1 1 1 1 1 1 1 2 2 2 2 1 1 1 1 1 1 1 1 2 2 2 2 1
1 1 0 0 0 0 0 0 1 1 1 1 2 2 2 2 1 1 1 1 1 1 1 1 1 1 1 1 1 1 1 1 1 1 1 1 1 1 1 1 1 1 1 1 2 2 2 2 2
1 1 0 0 0 0 0 0 1 1 1 1 1 2 2 2 2 1 1 1 1 1 1 1 1 1 1 1 1 1 1 1 1 1 1 1 1 1 1 1 1 1 1 1 2 3 3 2 2
1 1 1 1 1 0 0 0 1 1 1 1 1 2 2 2 2 1 1 1 2 2 1 1 1 2 2 1 1 1 1 1 1 1 1 1 1 1 1 1 1 1 1 1 2 3 3 2 2
1 1 1 1 1 1 1 1 1 1 1 1 2 2 2 2 1 1 1 1 2 2 2 2 2 2 2 2 2 1 1 1 1 1 1 1 1 1 1 1 1 1 1 1 2 3 2 2 2
1 1 2 2 1 1 1 1 1 1 1 2 2 2 2 2 1 1 1 1 2 2 2 2 2 2 3 2 2 2 1 1 1 1 1 1 1 1 1 2 2 1 1 1 2 2 2 1 2
1 1 2 2 2 1 1 1 2 2 2 2 2 2 2 1 1 1 1 1 1 1 1 1 2 2 2 2 2 2 1 2 2 2 2 2 2 1 2 2 2 1 1 1 1 1 1 1 1
2 2 2 2 1 1 1 2 2 2 2 2 2 1 1 1 1 1 1 1 1 1 1 1 1 1 2 2 2 2 1 1 2 2 2 2 2 2 2 2 2 1 1 1 1 1 1 1 1
2 2 2 1 1 1 1 2 2 2 1 1 1 1 1 1 1 1 1 1 1 1 1 1 1 1 2 2 2 1 1 1 2 2 2 2 2 2 2 2 2 2 1 1 1 1 1 1 1
2 2 2 2 1 1 1 1 2 1 1 1 1 1 1 1 1 1 1 1 1 1 1 1 1 1 1 1 2 1 1 1 2 2 2 2 2 2 2 2 2 1 1 1 1 1 1 1 1
2 2 2 2 1 1 1 1 1 1 1 1 1 1 1 1 1 1 1 1 1 1 2 1 1 1 1 1 1 1 1 1 1 1 1 1 2 2 2 2 2 1 1 1 1 1 1 1 1
2 2 2 1 1 1 1 1 1 1 1 2 2 1 1 1 1 1 1 1 2 2 2 2 1 1 1 1 1 1 1 1 1 1 1 1 1 2 2 2 1 1 1 1 1 1 1 1 1
1 1 1 1 1 1 1 1 1 1 1 2 2 2 1 1 1 1 1 1 2 2 2 2 2 2 2 1 1 1 1 1 1 1 1 1 1 1 2 1 1 1 1 2 2 2 2 1 1
1 1 1 1 1 1 1 1 1 1 1 1 2 2 1 1 1 1 1 1 2 2 2 2 2 2 2 2 1 1 1 1 1 1 1 1 1 1 1 1 1 1 1 2 2 2 2 2 2
1 1 1 1 1 1 1 1 1 1 1 1 2 2 2 1 2 1 1 1 1 2 2 2 2 3 2 2 2 1 1 1 1 2 2 2 1 2 2 1 1 2 2 2 2 2 2 2 2
1 1 1 1 1 1 1 1 1 1 1 1 2 2 2 2 2 2 1 1 1 1 2 2 2 3 3 2 2 2 2 2 2 2 2 2 2 2 2 2 3 3 3 2 2 2 2 2 3
1 1 1 1 1 1 1 1 1 2 2 1 2 2 2 2 2 2 2 2 1 1 2 2 2 3 3 2 2 2 2 2 2 2 2 3 2 2 2 3 3 4 3 3 3 3 3 3 3
1 1 1 1 1 1 1 1 2 2 2 1 2 2 3 3 3 3 2 2 2 2 2 2 2 3 3 3 3 3 2 2 2 2 2 2 2 2 2 2 3 3 3 3 4 4 4 4 3
0 0 0 0 0 0 1 1 2 1 1 1 2 2 3 4 4 4 3 3 3 2 2 2 2 3 3 3 3 3 3 2 2 2 2 2 2 2 2 1 1 2 2 3 3 3 3 3 3
0 0 0 0 0 0 1 1 1 1 1 1 2 2 3 4 4 4 4 4 4 3 2 2 2 3 3 3 3 3 2 2 2 1 1 1 1 1 1 1 1 1 1 2 2 2 3 3 3
0 0 0 0 0 0 1 1 1 1 1 2 2 3 3 3 4 4 5 5 4 3 3 2 2 2 3 3 3 2 2 2 2 2 1 1 1 1 1 1 1 1 1 1 1 2 2 3 3
0 0 0 0 0 0 1 1 1 1 1 2 2 3 3 4 4 4 4 5 4 3 3 3 3 2 2 2 2 2 2 2 2 2 2 1 1 1 1 1 2 2 2 1 1 2 2 2 3
0 0 0 0 0 0 0 1 1 1 1 2 3 3 4 4 4 4 4 4 4 3 3 3 3 2 2 2 2 2 2 2 2 2 2 2 2 2 2 2 2 2 2 2 2 2 2 2 2
0 0 0 0 0 0 0 1 1 1 1 2 3 4 5 5 4 3 4 4 4 3 3 3 3 2 2 2 2 2 2 2 2 2 2 2 2 2 2 2 3 3 2 2 2 1 1 1 1
Wind_Speed
10 8 5 5 6 3 11 10 8 7 7 7 6 5 7 8 8 7 6 5 5 6 7 10 9 9 10 10 10 10 10 11 11 11 11 12 12 12 12 12 12 12 12 12 11 11 10 10 10
6 5 6 5 1 8 11 9 9 9 7 5 5 5 6 8 8 6 5 5 5 6 7 8 10 9 10 10 10 10 10 10 10 10 10 10 11 11 11 11 11 11 11 11 11 10 10 10 9
5 6 5 1 7 10 10 9 8 8 6 3 4 6 6 7 6 5 6 5 5 7 7 10 10 9 9 9 9 10 9 9 9 9 8 9 9 10 10 10 10 10 11 11 10 9 9 9 9
5 6 4 2 11 11 8 7 5 5 5 5 4 6 7 6 4 6 7 5 6 7 8 11 9 8 8 8 9 9 9 8 8 8 8 8 8 9 9 9 9 9 10 10 9 9 8 8 8
6 4 1 7 12 9 8 7 4 6 6 5 5 7 8 7 7 8 7 6 6 7 7 10 9 8 7 8 8 8 8 8 7 7 7 7 7 8 7 8 8 9 9 9 9 9 8 8 8
5 3 4 9 11 8 8 5 4 6 7 5 5 7 8 7 7 7 7 6 6 7 7 9 10 8 7 7 7 7 7 7 7 6 6 7 6 7 7 7 7 7 8 8 8 8 8 7 7
4 3 7 8 8 9 8 5 5 5 6 5 4 6 8 7 7 6 7 6 6 6 6 6 6 7 8 7 6 6 6 6 6 6 6 6 6 5 6 5 6 7 8 8 8 8 8 8 7
5 2 6 8 8 9 7 5 5 5 6 5 2 4 7 8 7 7 7 6 5 4 4 5 5 4 4 6 7 6 5 5 5 5 5 5 6 6 6 6 6 7 7 7 8 7 7 8 8
5 1 8 9 8 8 5 4 5 5 6 5 5 7 10 10 8 7 6 5 5 4 3 3 4 3 3 3 5 5 5 5 5 5 5 5 4 4 5 5 6 7 7 7 7 7 8 8 9
3 4 8 7 6 6 5 5 4 4 5 5 7 9 11 10 8 7 6 5 4 3 2 3 3 3 2 2 3 2 2 3 2 2 3 2 2 2 2 5 6 7 7 8 8 8 9 9 7
2 4 5 5 5 4 4 5 4 3 4 4 6 10 10 9 7 6 5 4 3 2 2 2 2 2 1 1 1 1 1 1 2 2 3 2 2 2 2 2 5 6 7 6 8 8 5 5 3
1 3 3 4 4 3 4 4 5 6 7 6 8 9 9 8 6 5 5 3 3 2 2 2 2 2 1 1 1 1 1 1 1 2 1 1 1 1 1 1 2 2 2 2 2 2 3 4 4
1 2 3 4 3 4 4 4 5 7 7 8 9 9 8 7 6 5 4 3 3 3 2 2 1 1 1 1 1 1 1 1 1 1 1 0 0 0 1 1 1 1 2 3 3 3 3 4 4
2 2 2 3 3 3 4 5 5 7 8 9 9 8 7 6 5 5 4 3 3 3 2 2 1 1 1 1 0 0 1 1 0 1 1 0 0 0 0 1 1 1 1 1 2 3 3 3 3
3 3 3 2 2 2 1 4 5 7 8 8 8 7 6 5 4 4 3 3 2 3 2 1 2 1 1 0 0 1 1 1 0 1 1 0 1 1 1 1 1 1 1 2 2 2 2 3 3
6 5 2 3 1 1 4 5 6 7 7 7 7 6 5 4 4 3 3 3 2 2 2 1 0 1 1 1 0 0 0 0 0 0 1 0 1 1 1 1 1 1 1 2 2 3 2 2 2
6 3 1 2 1 1 2 3 5 6 6 6 6 6 5 4 3 3 4 4 3 2 2 1 0 0 1 1 1 0 1 1 1 0 0 0 1 1 2 1 1 2 2 2 2 1 1 1 2
2 2 2 1 1 2 2 1 4 5 5 5 5 5 5 4 4 4 4 4 3 3 2 1 1 0 0 1 1 1 1 1 1 0 1 1 1 1 1 2 2 2 2 2 1 1 1 1 1
4 4 3 2 1 2 1 1 3 5 5 4 5 5 4 4 4 4 4 4 4 4 3 2 1 1 1 0 1 1 1 0 1 0 1 1 1 1 1 1 1 2 2 1 1 2 2 1 1
5 5 2 1 1 3 1 1 3 4 4 4 4 4 5 4 5 5 4 4 5 5 4 3 3 2 2 1 0 0 0 0 1 1 1 0 1 1 1 1 1 2 1 2 2 2 1 1 2
5 5 3 2 2 4 4 4 5 4 4 4 4 4 4 4 5 5 5 5 5 4 4 3 3 3 2 1 1 1 1 1 0 0 1 0 1 1 1 1 1 1 2 2 3 3 3 1 1
4 2 4 4 6 3 4 3 4 4 4 4 4 4 5 5 4 5 5 4 4 4 4 3 3 3 3 2 1 1 1 1 0 0 1 1 1 1 1 1 1 2 2 1 3 3 2 2 2
3 1 4 5 6 6 4 6 3 4 2 2 3 4 5 5 5 4 4 4 3 3 3 3 3 3 3 3 2 2 1 1 0 0 1 1 1 1 1 1 1 1 2 1 2 2 3 3 3
3 4 4 6 7 5 1 5 1 2 0 1 3 4 4 4 5 4 4 3 3 3 3 3 3 3 3 3 2 2 1 1 1 1 1 1 1 1 1 1 1 1 1 1 2 2 3 2 2
7 7 5 5 5 1 2 4 2 3 2 1 2 3 4 4 4 4 4 4 3 3 3 3 4 3 3 3 2 2 1 1 1 1 0 1 1 1 1 1 1 1 1 1 1 1 1 2 2
5 7 6 5 4 1 4 3 3 3 3 3 3 4 4 4 4 4 4 4 3 3 3 3 4 3 3 3 2 2 1 1 0 0 1 1 1 1 2 1 1 1 1 0 0 1 1 1 2
5 5 6 7 6 5 1 1 3 3 3 3 4 4 4 4 4 4 3 4 3 3 3 3 4 4 4 3 3 2 2 1 0 0 1 1 1 1 1 1 1 1 0 0 1 0 1 1 2
4 4 5 6 5 6 3 3 0 3 3 4 4 3 4 4 4 4 4 3 3 3 3 3 3 4 3 3 2 2 2 1 1 1 0 1 1 1 1 1 0 0 0 1 1 1 1 1 1
5 6 5 5 6 7 5 1 5 2 2 2 4 4 4 4 4 4 4 4 4 3 4 4 4 3 3 2 2 1 1 1 1 1 1 1 1 1 1 1 1 1 1 1 1 1 0 1 1
7 6 7 6 5 6 7 1 5 3 2 2 3 4 4 4 4 4 5 4 4 4 3 3 3 3 2 2 2 2 1 1 1 1 1 1 1 1 1 1 1 1 1 1 1 2 1 1 2
Wind_Direction
182 187 213 236 232 99 65 58 53 55 60 54 48 39 38 33 19 55 77 85 88 101 112 126 120 123 125 124 125 125 122 126 129 133 137 140 142 144 144 147 147 148 148 147 145 142 144 145 143
181 192 228 240 316 70 65 53 53 52 66 76 64 49 50 58 46 77 93 94 99 102 110 109 114 118 121 121 125 127 126 128 127 128 135 141 144 145 146 146 147 151 152 150 148 146 146 145 145
193 230 261 267 50 51 56 50 57 73 70 53 60 47 39 49 60 78 92 110 110 104 109 110 117 116 117 120 121 124 126 129 130 132 135 142 146 148 149 148 147 149 153 151 152 152 152 149 147
226 225 232 61 62 54 50 54 63 87 79 56 63 73 71 51 51 84 106 113 110 112 113 108 113 112 114 118 120 121 125 127 133 137 136 139 144 148 150 150 150 150 150 153 155 158 160 157 153
245 259 162 75 66 60 55 52 55 59 65 66 67 78 77 70 82 104 115 113 107 104 106 109 110 110 112 114 119 123 127 130 134 134 137 140 145 147 148 149 151 152 152 156 158 160 161 159 159
251 258 53 63 67 66 62 54 59 65 73 78 80 84 79 90 101 110 110 101 95 97 101 108 120 119 115 114 117 123 130 136 142 138 138 141 143 147 150 152 155 155 153 158 163 164 164 162 164
305 13 53 62 65 66 54 46 46 61 68 64 69 83 97 103 102 108 106 101 94 92 97 104 117 127 128 124 122 121 128 134 142 141 140 142 144 151 151 156 160 163 163 168 171 171 170 168 172
302 310 64 63 57 61 60 58 49 52 67 72 59 79 100 114 118 112 107 101 93 87 94 106 109 112 131 129 128 128 127 131 144 147 144 146 158 166 169 172 165 165 165 174 177 172 172 173 179
268 334 53 45 43 54 61 70 70 66 88 82 60 68 102 122 127 125 119 113 102 90 97 109 112 110 119 124 127 144 147 148 164 160 164 184 174 166 173 153 163 170 173 179 177 175 179 185 187
280 40 48 33 28 44 54 53 78 99 97 94 96 101 117 132 136 135 129 128 123 119 114 106 104 99 111 115 121 137 141 135 149 137 157 166 148 161 163 152 174 177 180 186 182 187 192 206 193
4 28 31 34 28 39 61 60 58 74 76 95 124 128 133 138 141 137 128 127 123 134 121 103 100 100 98 95 110 116 122 122 143 142 160 159 181 170 174 169 170 176 186 189 178 193 199 199 194
68 38 11 26 21 35 53 69 64 46 51 81 119 129 135 142 140 137 133 137 135 141 130 111 95 86 70 57 103 130 128 130 126 131 165 153 171 183 143 171 154 171 167 166 186 185 195 203 201
117 53 46 55 57 64 74 75 74 69 80 100 117 128 137 140 138 131 129 132 132 143 140 122 105 84 92 82 314 112 106 122 120 110 138 174 179 177 126 140 160 185 159 170 189 192 192 204 206
61 75 79 81 84 86 82 84 94 95 109 118 127 132 137 138 139 134 133 127 136 141 137 128 139 135 130 141 197 279 162 149 151 132 97 252 269 109 193 182 198 198 188 187 197 193 199 210 214
184 192 158 118 104 110 142 98 88 112 129 131 132 131 132 138 146 149 147 145 139 142 137 134 154 139 145 181 225 205 186 158 150 129 131 209 291 320 279 216 213 200 182 185 192 197 202 208 215
223 232 193 104 108 170 268 68 99 132 143 140 139 137 141 146 156 161 161 163 154 150 152 172 128 136 159 167 289 310 12 63 41 81 138 170 279 265 254 227 213 189 203 195 189 203 198 207 228
223 250 356 105 123 222 270 69 115 149 155 150 154 150 153 151 161 167 176 177 168 166 171 181 156 184 202 181 183 149 72 31 4 27 15 355 273 246 239 225 194 217 204 207 212 170 210 220 233
286 303 313 336 67 257 269 93 129 161 172 160 163 165 166 167 168 166 176 174 172 167 169 180 174 167 226 185 170 158 112 87 59 30 39 348 302 264 250 213 183 221 206 204 193 192 205 231 227
299 291 296 359 5 279 277 198 147 169 185 176 175 175 173 169 159 160 171 176 175 174 174 176 178 147 185 191 208 172 143 83 76 61 56 355 322 291 255 254 178 222 202 206 199 204 193 189 157
255 262 258 158 106 284 272 213 155 171 190 190 191 187 180 168 164 166 175 179 185 186 189 184 187 178 194 173 199 198 240 130 98 17 63 351 347 312 240 235 224 215 189 186 194 196 218 197 175
252 271 282 281 244 230 252 198 155 154 171 180 190 187 180 176 171 168 175 181 189 193 194 193 192 185 195 201 191 153 171 227 150 135 83 29 9 337 325 294 257 226 225 195 200 202 206 211 203
257 294 272 248 252 246 272 280 139 151 162 176 187 190 183 176 174 171 174 181 185 191 191 192 188 186 186 193 201 203 234 277 341 328 60 27 20 346 321 290 262 253 252 209 223 208 215 212 211
291 297 258 256 263 265 239 272 124 151 183 174 179 186 181 175 173 173 173 176 181 178 179 175 177 183 179 189 191 220 253 273 304 345 41 317 43 6 356 331 300 268 259 245 250 228 227 223 231
192 205 215 234 246 250 283 279 80 108 263 135 139 158 171 173 167 164 158 157 160 155 156 158 161 172 174 177 180 203 216 256 303 312 350 328 47 37 31 347 321 291 284 253 243 240 224 231 241
222 241 238 226 227 233 122 263 33 59 61 71 124 141 151 161 160 160 160 156 157 151 146 144 145 152 158 160 169 185 194 205 214 271 314 318 345 18 33 0 346 316 312 290 261 221 240 228 230
238 261 278 292 299 268 179 255 77 77 87 99 112 123 136 141 143 153 162 162 161 154 149 149 151 158 162 161 161 160 175 209 187 248 310 333 338 9 28 23 30 7 328 302 201 224 215 212 226
232 248 291 285 280 279 256 171 156 137 139 127 121 121 131 137 142 146 154 163 160 158 154 158 162 164 166 168 170 167 175 209 206 208 266 315 343 342 12 360 44 47 6 302 231 213 224 214 222
281 268 253 271 287 281 259 246 118 143 165 154 149 139 133 143 144 140 142 141 144 149 147 154 160 167 169 169 185 175 183 191 200 238 284 324 320 322 328 336 336 139 189 212 237 216 210 225 221
206 221 251 268 288 292 289 24 61 89 133 165 158 145 138 141 135 135 138 133 128 127 140 145 146 154 161 167 179 189 188 189 197 214 235 251 266 272 274 291 283 253 221 209 211 250 253 256 267
248 248 240 256 260 270 286 29 80 69 79 130 145 135 128 131 128 128 130 132 130 124 114 115 127 140 152 160 169 168 169 179 208 209 235 242 252 258 258 279 273 259 230 211 213 235 236 243 251